{"data":{"norad_id":65301,"intl_designator":"2025-185E","name":"BASIL","alt_names":[],"object_type":"PAYLOAD","status":"ACTIVE","operator":null,"country":"RWA","launch_date":"2025-08-23","launch_site_code":"RLLB","launch_vehicle":null,"mission":null,"orbit_class":"UNKNOWN","rcs_meters":null,"size_class":null,"mass_kg":null,"dimensions":null,"purposes":[],"wikipedia_slug":null,"has_3d_model":false,"image_url":null,"decayed_at":null,"tle_current":{"epoch":"2026-09-21T19:28:16.766688Z","epoch_age_seconds":48965,"freshness":"FRESH","line1":"1 65301U 25185E   26264.81130517  .00004949  00000+0  64584-3 0  9997","line2":"2 65301  97.9657 347.4415 0015105 130.7781 229.4744 14.80899915 58130","mean_motion":14.80899915,"eccentricity":0.0015105,"inclination_deg":97.9657,"raan_deg":347.4415,"arg_perigee_deg":130.7781,"mean_anomaly_deg":229.4744,"bstar":0.00064584,"rev_number":5813,"period_min":97.238171561378,"perigee_km":615.90449751573,"apogee_km":637.06546051433,"semimajor_km":7004.621979015,"source":"CELESTRAK","updated_at":"2026-09-22T09:00:30.255398Z"}}}